iso_date,epoch_date,Year,Hour,Min,DOY,POS_DOY,Lat,Lon,BP,Ts,Ta,has_bp,has_ts,has_ta,BuoyID,Buoy_Type,Buoy_Owner,Logistics,Hemisphere
2019-10-28T14:30:02Z,1572273003,2019,14,30,301.6042,301.6042,85.786,127.25956,-999.00,-1.32,-999.0,no,yes,no,300234065984580,GPS,TUT,MOSAiC,North
2019-10-28T15:29:57Z,1572276597,2019,15,30,301.6458,301.6458,85.79376,127.20618,-999.00,-1.3,-999.0,no,yes,no,300234065984580,GPS,TUT,MOSAiC,North
2019-10-28T16:30:00Z,1572280200,2019,16,30,301.6875,301.6875,85.79743,127.18442,-999.00,-1.26,-999.0,no,yes,no,300234065984580,GPS,TUT,MOSAiC,North
2019-10-28T17:30:02Z,1572283803,2019,17,30,301.7292,301.7292,85.79743,127.10442,-999.00,-1.24,-999.0,no,yes,no,300234065984580,GPS,TUT,MOSAiC,North
2019-10-28T18:29:57Z,1572287397,2019,18,30,301.7708,301.7708,85.80387,127.12762,-999.00,-1.23,-999.0,no,yes,no,300234065984580,GPS,TUT,MOSAiC,North
2019-10-28T19:30:00Z,1572291000,2019,19,30,301.8125,301.8125,85.80387,127.12762,-999.00,-1.2,-999.0,no,yes,no,300234065984580,GPS,TUT,MOSAiC,North
2019-10-28T20:30:02Z,1572294603,2019,20,30,301.8542,301.8542,85.81002,127.04978,-999.00,-1.18,-999.0,no,yes,no,300234065984580,GPS,TUT,MOSAiC,North
2019-10-28T21:29:57Z,1572298197,2019,21,30,301.8958,301.8958,85.81318,127.00503,-999.00,-1.16,-999.0,no,yes,no,300234065984580,GPS,TUT,MOSAiC,North
2019-10-28T22:30:00Z,1572301800,2019,22,30,301.9375,301.9375,85.81645,126.95708,-999.00,-1.19,-999.0,no,yes,no,300234065984580,GPS,TUT,MOSAiC,North
2019-10-28T23:30:02Z,1572305403,2019,23,30,301.9792,301.9792,85.81645,126.95707,-999.00,-1.23,-999.0,no,yes,no,300234065984580,GPS,TUT,MOSAiC,North
2019-10-29T00:29:57Z,1572308997,2019,0,30,302.0208,302.0208,85.82322,126.85221,-999.00,-1.27,-999.0,no,yes,no,300234065984580,GPS,TUT,MOSAiC,North
2019-10-29T01:30:00Z,1572312600,2019,1,30,302.0625,302.0625,85.82675,126.80353,-999.00,-1.29,-999.0,no,yes,no,300234065984580,GPS,TUT,MOSAiC,North
2019-10-29T02:30:02Z,1572316203,2019,2,30,302.1042,302.1042,85.82675,126.80352,-999.00,-1.29,-999.0,no,yes,no,300234065984580,GPS,TUT,MOSAiC,North
2019-10-29T03:29:57Z,1572319797,2019,3,30,302.1458,302.1458,85.83327,126.72589,-999.00,8.5,-999.0,no,yes,no,300234065984580,GPS,TUT,MOSAiC,North
2019-10-29T04:30:00Z,1572323400,2019,4,30,302.1875,302.1875,85.83616,126.69133,-999.00,-1.29,-999.0,no,yes,no,300234065984580,GPS,TUT,MOSAiC,North
2019-10-29T05:30:02Z,1572327003,2019,5,30,302.2292,302.2292,85.83616,126.69133,-999.00,-1.26,-999.0,no,yes,no,300234065984580,GPS,TUT,MOSAiC,North
2019-10-29T06:29:57Z,1572330597,2019,6,30,302.2708,302.2708,85.84134,126.62199,-999.00,-1.32,-999.0,no,yes,no,300234065984580,GPS,TUT,MOSAiC,North
2019-10-29T14:30:02Z,1572359403,2019,14,30,302.6042,302.6042,85.86225,126.2842,-999.00,-1.63,-999.0,no,yes,no,300234065984580,GPS,TUT,MOSAiC,North
2019-10-29T15:29:57Z,1572362997,2019,15,30,302.6458,302.6458,85.8683,126.21037,-999.00,-1.65,-999.0,no,yes,no,300234065984580,GPS,TUT,MOSAiC,North
2019-10-29T16:30:00Z,1572366600,2019,16,30,302.6875,302.6875,85.87089,126.17879,-999.00,-1.68,-999.0,no,yes,no,300234065984580,GPS,TUT,MOSAiC,North
2019-10-29T17:30:02Z,1572370203,2019,17,30,302.7292,302.7292,85.87324,126.14749,-999.00,-0.09,-999.0,no,yes,no,300234065984580,GPS,TUT,MOSAiC,North
2019-10-29T18:29:57Z,1572373797,2019,18,30,302.7708,302.7708,85.87324,126.14749,-999.00,-1.71,-999.0,no,yes,no,300234065984580,GPS,TUT,MOSAiC,North
2019-10-29T19:30:00Z,1572377400,2019,19,30,302.8125,302.8125,85.87772,126.0794,-999.00,-1.71,-999.0,no,yes,no,300234065984580,GPS,TUT,MOSAiC,North
2019-10-29T19:59:57Z,1572379197,2019,20,0,302.8333,302.8333,85.88122,126.01901,-999.00,-1.73,-999.0,no,yes,no,300234065984580,GPS,TUT,MOSAiC,North
2019-10-29T21:00:00Z,1572382800,2019,21,0,302.875,302.875,85.88369,125.97567,-999.00,-1.75,-999.0,no,yes,no,300234065984580,GPS,TUT,MOSAiC,North
2019-10-29T22:00:02Z,1572386403,2019,22,0,302.9167,302.9167,85.88636,125.93107,-999.00,-1.77,-999.0,no,yes,no,300234065984580,GPS,TUT,MOSAiC,North
2019-10-29T23:30:02Z,1572391803,2019,23,30,302.9792,302.9792,85.88785,125.90788,-999.00,-1.68,-999.0,no,yes,no,300234065984580,GPS,TUT,MOSAiC,North
2019-10-30T00:29:57Z,1572395397,2019,0,30,303.0208,303.0208,85.88785,125.90785,-999.00,-1.74,-999.0,no,yes,no,300234065984580,GPS,TUT,MOSAiC,North
2019-10-30T01:30:00Z,1572399000,2019,1,30,303.0625,303.0625,85.89389,125.82225,-999.00,-1.69,-999.0,no,yes,no,300234065984580,GPS,TUT,MOSAiC,North
2019-10-30T02:30:02Z,1572402603,2019,2,30,303.1042,303.1042,85.89677,125.78531,-999.00,-1.63,-999.0,no,yes,no,300234065984580,GPS,TUT,MOSAiC,North
2019-10-30T03:29:57Z,1572406197,2019,3,30,303.1458,303.1458,85.89937,125.75328,-999.00,-1.59,-999.0,no,yes,no,300234065984580,GPS,TUT,MOSAiC,North
2019-10-30T04:30:00Z,1572409800,2019,4,30,303.1875,303.1875,85.89937,125.75327,-999.00,-1.55,-999.0,no,yes,no,300234065984580,GPS,TUT,MOSAiC,North
2019-10-30T05:30:02Z,1572413403,2019,5,30,303.2292,303.2292,85.90382,125.69412,-999.00,-1.42,-999.0,no,yes,no,300234065984580,GPS,TUT,MOSAiC,North
2019-10-30T06:29:57Z,1572416997,2019,6,30,303.2708,303.2708,85.90382,125.69411,-999.00,-1.49,-999.0,no,yes,no,300234065984580,GPS,TUT,MOSAiC,North
2019-10-30T07:30:00Z,1572420600,2019,7,30,303.3125,303.3125,85.90779,125.62572,-999.00,-0.66,-999.0,no,yes,no,300234065984580,GPS,TUT,MOSAiC,North
2019-10-30T08:30:02Z,1572424203,2019,8,30,303.3542,303.3542,85.90983,125.58412,-999.00,-1.44,-999.0,no,yes,no,300234065984580,GPS,TUT,MOSAiC,North
2019-10-30T09:29:57Z,1572427797,2019,9,30,303.3958,303.3958,85.91203,125.53842,-999.00,-1.42,-999.0,no,yes,no,300234065984580,GPS,TUT,MOSAiC,North
2019-10-30T10:30:00Z,1572431400,2019,10,30,303.4375,303.4375,85.91203,125.53842,-999.00,-1.4,-999.0,no,yes,no,300234065984580,GPS,TUT,MOSAiC,North
2019-10-30T11:30:02Z,1572435003,2019,11,30,303.4792,303.4792,85.91711,125.44909,-999.00,-1.39,-999.0,no,yes,no,300234065984580,GPS,TUT,MOSAiC,North
2019-10-30T12:29:57Z,1572438597,2019,12,30,303.5208,303.5208,85.91984,125.40891,-999.00,-1.38,-999.0,no,yes,no,300234065984580,GPS,TUT,MOSAiC,North
2019-10-30T14:30:02Z,1572445803,2019,14,30,303.6042,303.6042,85.92471,125.34103,-999.00,-1.36,-999.0,no,yes,no,300234065984580,GPS,TUT,MOSAiC,North
2019-10-30T15:29:57Z,1572449397,2019,15,30,303.6458,303.6458,85.92665,125.31178,-999.00,-1.36,-999.0,no,yes,no,300234065984580,GPS,TUT,MOSAiC,North
2019-10-30T16:30:00Z,1572453000,2019,16,30,303.6875,303.6875,85.92665,125.22011,-999.00,-1.36,-999.0,no,yes,no,300234065984580,GPS,TUT,MOSAiC,North
2019-10-30T17:30:02Z,1572456603,2019,17,30,303.7292,303.7292,85.92961,125.25514,-999.00,-1.27,-999.0,no,yes,no,300234065984580,GPS,TUT,MOSAiC,North
2019-10-30T18:29:57Z,1572460197,2019,18,30,303.7708,303.7708,85.92961,125.25514,-999.00,-1.33,-999.0,no,yes,no,300234065984580,GPS,TUT,MOSAiC,North
2019-10-30T19:30:00Z,1572463800,2019,19,30,303.8125,303.8125,85.9324,125.18705,-999.00,-1.41,-999.0,no,yes,no,300234065984580,GPS,TUT,MOSAiC,North
2019-10-30T20:30:02Z,1572467403,2019,20,30,303.8542,303.8542,85.93405,125.14719,-999.00,-1.44,-999.0,no,yes,no,300234065984580,GPS,TUT,MOSAiC,North
2019-10-30T21:29:57Z,1572470997,2019,21,30,303.8958,303.8958,85.93404,125.14719,-999.00,-1.48,-999.0,no,yes,no,300234065984580,GPS,TUT,MOSAiC,North
2019-10-30T22:30:00Z,1572474600,2019,22,30,303.9375,303.9375,85.93822,125.05966,-999.00,-1.5,-999.0,no,yes,no,300234065984580,GPS,TUT,MOSAiC,North
2019-10-30T23:30:02Z,1572478203,2019,23,30,303.9792,303.9792,85.93822,125.05964,-999.00,-1.31,-999.0,no,yes,no,300234065984580,GPS,TUT,MOSAiC,North
2019-10-31T00:29:57Z,1572481797,2019,0,30,304.0208,304.0208,85.94336,124.97322,-999.00,-1.56,-999.0,no,yes,no,300234065984580,GPS,TUT,MOSAiC,North
2019-10-31T01:30:00Z,1572485400,2019,1,30,304.0625,304.0625,85.94336,124.97322,-999.00,-0.73,-999.0,no,yes,no,300234065984580,GPS,TUT,MOSAiC,North
2019-10-31T02:30:02Z,1572489003,2019,2,30,304.1042,304.1042,85.94704,124.91953,-999.00,-1.57,-999.0,no,yes,no,300234065984580,GPS,TUT,MOSAiC,North
2019-10-31T03:29:57Z,1572492597,2019,3,30,304.1458,304.1458,85.94814,124.90363,-999.00,-1.59,-999.0,no,yes,no,300234065984580,GPS,TUT,MOSAiC,North
2019-10-31T04:30:00Z,1572496200,2019,4,30,304.1875,304.1875,-85.94814,124.90363,-999.00,-1.61,-999.0,no,yes,no,300234065984580,GPS,TUT,MOSAiC,North
2019-10-31T05:30:02Z,1572499803,2019,5,30,304.2292,304.2292,85.95172,124.84849,-999.00,-1.62,-999.0,no,yes,no,300234065984580,GPS,TUT,MOSAiC,North
2019-10-31T06:29:57Z,1572503397,2019,6,30,304.2708,304.2708,85.95325,124.82194,-999.00,-1.62,-999.0,no,yes,no,300234065984580,GPS,TUT,MOSAiC,North
2019-10-31T07:30:00Z,1572507000,2019,7,30,304.3125,304.3125,85.95326,124.82194,-999.00,-1.62,-999.0,no,yes,no,300234065984580,GPS,TUT,MOSAiC,North
2019-10-31T08:30:02Z,1572510603,2019,8,30,304.3542,304.3542,85.9562,124.76462,-999.00,-1.63,-999.0,no,yes,no,300234065984580,GPS,TUT,MOSAiC,North
2019-10-31T09:29:57Z,1572514197,2019,9,30,304.3958,304.3958,85.9562,124.76461,-999.00,-1.62,-999.0,no,yes,no,300234065984580,GPS,TUT,MOSAiC,North
2019-10-31T10:30:00Z,1572517800,2019,10,30,304.4375,304.4375,85.95985,124.69614,-999.00,-1.62,-999.0,no,yes,no,300234065984580,GPS,TUT,MOSAiC,North
2019-10-31T11:30:02Z,1572521403,2019,11,30,304.4792,304.4792,85.95985,124.69613,-999.00,-0.01,-999.0,no,yes,no,300234065984580,GPS,TUT,MOSAiC,North
2019-10-31T12:29:57Z,1572524997,2019,12,30,304.5208,304.5208,85.9644,124.62575,-999.00,-1.61,-999.0,no,yes,no,300234065984580,GPS,TUT,MOSAiC,North
2019-10-31T13:30:00Z,1572528600,2019,13,30,304.5625,304.5625,85.9644,124.62574,-999.00,-1.59,-999.0,no,yes,no,300234065984580,GPS,TUT,MOSAiC,North
2019-11-01T14:30:02Z,1572618603,2019,14,30,305.6042,305.6042,86.01604,124.01033,-999.00,-1.48,-999.0,no,yes,no,300234065984580,GPS,TUT,MOSAiC,North
2019-11-01T15:29:57Z,1572622197,2019,15,30,305.6458,305.6458,86.01992,123.99535,-999.00,-1.48,-999.0,no,yes,no,300234065984580,GPS,TUT,MOSAiC,North
2019-11-01T16:30:00Z,1572625800,2019,16,30,305.6875,305.6875,86.02136,123.9904,-999.00,-1.48,-999.0,no,yes,no,300234065984580,GPS,TUT,MOSAiC,North
2019-11-01T17:30:02Z,1572629403,2019,17,30,305.7292,305.7292,86.0225,123.98502,-999.00,-0.68,-999.0,no,yes,no,300234065984580,GPS,TUT,MOSAiC,North
2019-11-01T18:29:57Z,1572632997,2019,18,30,305.7708,305.7708,86.0225,123.90336,-999.00,-1.48,-999.0,no,yes,no,300234065984580,GPS,TUT,MOSAiC,North
2019-11-01T19:30:00Z,1572636600,2019,19,30,305.8125,305.8125,86.02443,123.96521,-999.00,-1.48,-999.0,no,yes,no,300234065984580,GPS,TUT,MOSAiC,North
2019-11-01T20:30:02Z,1572640203,2019,20,30,305.8542,305.8542,86.02443,123.96521,-999.00,-1.47,-999.0,no,yes,no,300234065984580,GPS,TUT,MOSAiC,North
2019-11-01T21:29:57Z,1572643797,2019,21,30,305.8958,305.8958,86.02657,123.93361,-999.00,-1.46,-999.0,no,yes,no,300234065984580,GPS,TUT,MOSAiC,North
2019-11-01T22:30:00Z,1572647400,2019,22,30,305.9375,305.9375,86.02657,123.93361,-999.00,-1.46,-999.0,no,yes,no,300234065984580,GPS,TUT,MOSAiC,North
2019-11-01T23:30:02Z,1572651003,2019,23,30,305.9792,305.9792,86.02979,123.89668,-999.00,-1.44,-999.0,no,yes,no,300234065984580,GPS,TUT,MOSAiC,North
2019-11-02T00:29:57Z,1572654597,2019,0,30,306.0208,306.0208,86.02979,123.89668,-999.00,-1.04,-999.0,no,yes,no,300234065984580,GPS,TUT,MOSAiC,North
2019-11-02T01:30:00Z,1572658200,2019,1,30,306.0625,306.0625,86.03381,123.86632,-999.00,-1.44,-999.0,no,yes,no,300234065984580,GPS,TUT,MOSAiC,North
2019-11-02T02:30:02Z,1572661803,2019,2,30,306.1042,306.1042,86.03382,123.86632,-999.00,-1.43,-999.0,no,yes,no,300234065984580,GPS,TUT,MOSAiC,North
2019-11-02T03:29:57Z,1572665397,2019,3,30,306.1458,306.1458,86.03727,123.84749,-999.00,-1.43,-999.0,no,yes,no,300234065984580,GPS,TUT,MOSAiC,North
2019-11-02T04:30:00Z,1572669000,2019,4,30,306.1875,306.1875,86.0385,123.8384,-999.00,-1.42,-999.0,no,yes,no,300234065984580,GPS,TUT,MOSAiC,North
2019-11-02T05:30:02Z,1572672603,2019,5,30,306.2292,306.2292,86.03942,123.82737,-999.00,-1.42,-999.0,no,yes,no,300234065984580,GPS,TUT,MOSAiC,North
2019-11-02T06:29:57Z,1572676197,2019,6,30,306.2708,306.2708,86.0401,123.81321,-999.00,-1.41,-999.0,no,yes,no,300234065984580,GPS,TUT,MOSAiC,North
2019-11-02T07:30:00Z,1572679800,2019,7,30,306.3125,306.3125,86.04079,123.79348,-999.00,-1.42,-999.0,no,yes,no,300234065984580,GPS,TUT,MOSAiC,North
2019-11-02T08:30:02Z,1572683403,2019,8,30,306.3542,306.3542,86.0418,123.76934,-999.00,-1.43,-999.0,no,yes,no,300234065984580,GPS,TUT,MOSAiC,North
2019-11-02T09:29:57Z,1572686997,2019,9,30,306.3958,306.3958,86.0418,123.76934,-999.00,-1.46,-999.0,no,yes,no,300234065984580,GPS,TUT,MOSAiC,North
2019-11-02T10:30:00Z,1572690600,2019,10,30,306.4375,306.4375,86.04481,123.7125,-999.00,-1.5,-999.0,no,yes,no,300234065984580,GPS,TUT,MOSAiC,North
2019-11-02T11:30:02Z,1572694203,2019,11,30,306.4792,306.4792,86.04481,123.71249,-999.00,-1.54,-999.0,no,yes,no,300234065984580,GPS,TUT,MOSAiC,North
2019-11-02T12:29:57Z,1572697797,2019,12,30,306.5208,306.5208,86.04914,123.6559,-999.00,-1.6,-999.0,no,yes,no,300234065984580,GPS,TUT,MOSAiC,North
2019-11-02T13:30:00Z,1572701400,2019,13,30,306.5625,306.5625,86.05144,123.62988,-999.00,-1.66,-999.0,no,yes,no,300234065984580,GPS,TUT,MOSAiC,North
2019-11-02T14:30:02Z,1572705003,2019,14,30,306.6042,306.6042,86.05144,123.62986,-999.00,-1.7,-999.0,no,yes,no,300234065984580,GPS,TUT,MOSAiC,North
2019-11-02T15:29:57Z,1572708597,2019,15,30,306.6458,306.6458,86.05555,123.58061,-999.00,-1.73,-999.0,no,yes,no,300234065984580,GPS,TUT,MOSAiC,North
2019-11-02T16:30:00Z,1572712200,2019,16,30,306.6875,306.6875,86.05555,123.5806,-999.00,-1.74,-999.0,no,yes,no,300234065984580,GPS,TUT,MOSAiC,North
2019-11-02T17:30:02Z,1572715803,2019,17,30,306.7292,306.7292,86.0586,123.52826,-999.00,-1.74,-999.0,no,yes,no,300234065984580,GPS,TUT,MOSAiC,North
2019-11-02T18:29:57Z,1572719397,2019,18,30,306.7708,306.7708,86.05991,123.49742,-999.00,-1.73,-999.0,no,yes,no,300234065984580,GPS,TUT,MOSAiC,North
2019-11-02T19:30:00Z,1572723000,2019,19,30,306.8125,306.8125,86.05992,123.49742,-999.00,-1.7,-999.0,no,yes,no,300234065984580,GPS,TUT,MOSAiC,North
2019-11-02T20:30:02Z,1572726603,2019,20,30,306.8542,306.8542,86.06271,123.42221,-999.00,-1.69,-999.0,no,yes,no,300234065984580,GPS,TUT,MOSAiC,North
2019-11-02T21:29:57Z,1572730197,2019,21,30,306.8958,306.8958,86.06271,123.4222,-999.00,-1.67,-999.0,no,yes,no,300234065984580,GPS,TUT,MOSAiC,North
2019-11-02T22:30:00Z,1572733800,2019,22,30,306.9375,306.9375,86.06659,123.32936,-999.00,-1.65,-999.0,no,yes,no,300234065984580,GPS,TUT,MOSAiC,North
2019-11-02T23:30:02Z,1572737403,2019,23,30,306.9792,306.9792,86.06659,123.32934,-999.00,-1.63,-999.0,no,yes,no,300234065984580,GPS,TUT,MOSAiC,North
2019-11-03T00:29:57Z,1572740997,2019,0,30,307.0208,307.0208,86.07162,123.23528,-999.00,-1.61,-999.0,no,yes,no,300234065984580,GPS,TUT,MOSAiC,North
2019-11-03T01:30:00Z,1572744600,2019,1,30,307.0625,307.0625,86.07438,123.19281,-999.00,-1.58,-999.0,no,yes,no,300234065984580,GPS,TUT,MOSAiC,North
2019-11-03T02:30:02Z,1572748203,2019,2,30,307.1042,307.1042,86.07438,123.19279,-999.00,-1.56,-999.0,no,yes,no,300234065984580,GPS,TUT,MOSAiC,North
2019-11-03T03:29:57Z,1572751797,2019,3,30,307.1458,307.1458,86.08017,123.12216,-999.00,-1.54,-999.0,no,yes,no,300234065984580,GPS,TUT,MOSAiC,North
2019-11-03T04:30:00Z,1572755400,2019,4,30,307.1875,307.1875,86.08305,123.08582,-999.00,-1.51,-999.0,no,yes,no,300234065984580,GPS,TUT,MOSAiC,North
2019-11-03T05:30:02Z,1572759003,2019,5,30,307.2292,307.2292,86.08564,123.04549,-999.00,-1.48,-999.0,no,yes,no,300234065984580,GPS,TUT,MOSAiC,North
2019-11-03T06:29:57Z,1572762597,2019,6,30,307.2708,307.2708,86.08765,122.99607,-999.00,-1.46,-999.0,no,yes,no,300234065984580,GPS,TUT,MOSAiC,North
2019-11-03T07:30:00Z,1572766200,2019,7,30,307.3125,307.3125,86.08765,122.99604,-999.00,-1.47,-999.0,no,yes,no,300234065984580,GPS,TUT,MOSAiC,North
2019-11-03T08:30:02Z,1572769803,2019,8,30,307.3542,307.3542,86.09084,122.86145,-999.00,-0.69,-999.0,no,yes,no,300234065984580,GPS,TUT,MOSAiC,North
2019-11-03T09:29:57Z,1572773397,2019,9,30,307.3958,307.3958,86.09277,122.77487,-999.00,-1.58,-999.0,no,yes,no,300234065984580,GPS,TUT,MOSAiC,North
2019-11-03T10:30:00Z,1572777000,2019,10,30,307.4375,307.4375,86.09277,122.77484,-999.00,-1.66,-999.0,no,yes,no,300234065984580,GPS,TUT,MOSAiC,North
2019-11-03T11:30:02Z,1572780603,2019,11,30,307.4792,307.4792,86.0973,122.58262,-999.00,-1.73,-999.0,no,yes,no,300234065984580,GPS,TUT,MOSAiC,North
2019-11-03T12:29:57Z,1572784197,2019,12,30,307.5208,307.5208,86.10044,122.48559,-999.00,-1.74,-999.0,no,yes,no,300234065984580,GPS,TUT,MOSAiC,North
2019-11-03T13:30:00Z,1572787800,2019,13,30,307.5625,307.5625,86.10044,122.48557,-999.00,-1.74,-999.0,no,yes,no,300234065984580,GPS,TUT,MOSAiC,North
2019-11-03T14:30:02Z,1572791403,2019,14,30,307.6042,307.6042,86.1072,122.32317,-999.00,-1.63,-999.0,no,yes,no,300234065984580,GPS,TUT,MOSAiC,North
2019-11-03T15:29:57Z,1572794997,2019,15,30,307.6458,307.6458,86.11102,122.22954,-999.00,-1.71,-999.0,no,yes,no,300234065984580,GPS,TUT,MOSAiC,North
2019-11-03T16:30:00Z,1572798600,2019,16,30,307.6875,307.6875,86.11102,122.22954,-999.00,-1.69,-999.0,no,yes,no,300234065984580,GPS,TUT,MOSAiC,North
2019-11-03T17:30:02Z,1572802203,2019,17,30,307.7292,307.7292,86.11301,122.17161,-999.00,-1.68,-999.0,no,yes,no,300234065984580,GPS,TUT,MOSAiC,North
2019-11-03T18:29:57Z,1572805797,2019,18,30,307.7708,307.7708,86.11564,122.0825,-999.00,-1.65,-999.0,no,yes,no,300234065984580,GPS,TUT,MOSAiC,North
2019-11-03T19:30:00Z,1572809400,2019,19,30,307.8125,307.8125,86.11727,122.01404,-999.00,-1.64,-999.0,no,yes,no,300234065984580,GPS,TUT,MOSAiC,North
2019-11-03T20:30:02Z,1572813003,2019,20,30,307.8542,307.8542,86.11727,122.01403,-999.00,-1.62,-999.0,no,yes,no,300234065984580,GPS,TUT,MOSAiC,North
2019-11-03T21:29:57Z,1572816597,2019,21,30,307.8958,307.8958,86.12118,121.86502,-999.00,-1.62,-999.0,no,yes,no,300234065984580,GPS,TUT,MOSAiC,North
2019-11-03T22:30:00Z,1572820200,2019,22,30,307.9375,307.9375,86.12118,121.86497,-999.00,-0.02,-999.0,no,yes,no,300234065984580,GPS,TUT,MOSAiC,North
2019-11-03T23:30:02Z,1572823803,2019,23,30,307.9792,307.9792,86.12588,121.7122,-999.00,-1.64,-999.0,no,yes,no,300234065984580,GPS,TUT,MOSAiC,North
2019-11-04T00:29:57Z,1572827397,2019,0,30,308.0208,308.0208,86.12588,121.7122,-999.00,-1.64,-999.0,no,yes,no,300234065984580,GPS,TUT,MOSAiC,North
2019-11-04T01:30:00Z,1572831000,2019,1,30,308.0625,308.0625,86.13116,121.569,-999.00,-1.66,-999.0,no,yes,no,300234065984580,GPS,TUT,MOSAiC,North
2019-11-04T02:30:02Z,1572834603,2019,2,30,308.1042,308.1042,86.13116,121.56897,-999.00,-1.64,-999.0,no,yes,no,300234065984580,GPS,TUT,MOSAiC,North
2019-11-04T03:29:57Z,1572838197,2019,3,30,308.1458,308.1458,86.13604,121.44178,-999.00,-1.64,-999.0,no,yes,no,300234065984580,GPS,TUT,MOSAiC,North
2019-11-04T04:30:00Z,1572841800,2019,4,30,308.1875,308.1875,86.13604,121.44177,-999.00,-1.62,-999.0,no,yes,no,300234065984580,GPS,TUT,MOSAiC,North
2019-11-04T05:30:02Z,1572845403,2019,5,30,308.2292,308.2292,86.13968,121.31813,-999.00,-1.61,-999.0,no,yes,no,300234065984580,GPS,TUT,MOSAiC,North
2019-11-04T06:29:57Z,1572848997,2019,6,30,308.2708,308.2708,86.13968,121.31812,-999.00,-1.59,-999.0,no,yes,no,300234065984580,GPS,TUT,MOSAiC,North
2019-11-04T07:30:00Z,1572852600,2019,7,30,308.3125,308.3125,86.14228,121.18307,-999.00,-1.56,-999.0,no,yes,no,300234065984580,GPS,TUT,MOSAiC,North
2019-11-04T08:30:02Z,1572856203,2019,8,30,308.3542,308.3542,86.14228,121.18303,-999.00,-1.55,-999.0,no,yes,no,300234065984580,GPS,TUT,MOSAiC,North
2019-11-04T09:29:57Z,1572859797,2019,9,30,308.3958,308.3958,86.14472,121.03951,-999.00,-1.54,-999.0,no,yes,no,300234065984580,GPS,TUT,MOSAiC,North
2019-11-04T10:30:00Z,1572863400,2019,10,30,308.4375,308.4375,86.14472,121.0395,-999.00,-1.51,-999.0,no,yes,no,300234065984580,GPS,TUT,MOSAiC,North
2019-11-04T11:30:02Z,1572867003,2019,11,30,308.4792,308.4792,86.1478,120.89832,-999.00,-1.5,-999.0,no,yes,no,300234065984580,GPS,TUT,MOSAiC,North
2019-11-04T12:29:57Z,1572870597,2019,12,30,308.5208,308.5208,86.1478,120.89829,-999.00,-1.49,-999.0,no,yes,no,300234065984580,GPS,TUT,MOSAiC,North
2019-11-04T13:30:00Z,1572874200,2019,13,30,308.5625,308.5625,86.15102,120.77185,-999.00,-1.28,-999.0,no,yes,no,300234065984580,GPS,TUT,MOSAiC,North
2019-11-04T14:30:02Z,1572877803,2019,14,30,308.6042,308.6042,86.15233,120.71322,-999.00,-1.48,-999.0,no,yes,no,300234065984580,GPS,TUT,MOSAiC,North
2019-11-04T15:29:57Z,1572881397,2019,15,30,308.6458,308.6458,86.1533,120.65796,-999.00,-1.49,-999.0,no,yes,no,300234065984580,GPS,TUT,MOSAiC,North
2019-11-04T16:30:00Z,1572885000,2019,16,30,308.6875,308.6875,86.1533,120.65793,-999.00,-1.5,-999.0,no,yes,no,300234065984580,GPS,TUT,MOSAiC,North
2019-11-04T17:30:02Z,1572888603,2019,17,30,308.7292,308.7292,86.15402,120.5514,-999.00,-1.52,-999.0,no,yes,no,300234065984580,GPS,TUT,MOSAiC,North
2019-11-04T18:29:57Z,1572892197,2019,18,30,308.7708,308.7708,86.15396,120.49656,-999.00,-1.56,-999.0,no,yes,no,300234065984580,GPS,TUT,MOSAiC,North
2019-11-04T19:30:00Z,1572895800,2019,19,30,308.8125,308.8125,86.15379,120.44151,-999.00,-1.62,-999.0,no,yes,no,300234065984580,GPS,TUT,MOSAiC,North
2019-11-04T20:30:02Z,1572899403,2019,20,30,308.8542,308.8542,86.15379,120.44148,-999.00,-1.69,-999.0,no,yes,no,300234065984580,GPS,TUT,MOSAiC,North
2019-11-04T21:29:57Z,1572902997,2019,21,30,308.8958,308.8958,86.15338,120.32777,-999.00,-1.8,-999.0,no,yes,no,300234065984580,GPS,TUT,MOSAiC,North
2019-11-04T22:30:00Z,1572906600,2019,22,30,308.9375,308.9375,86.15337,120.2166,-999.00,-1.83,-999.0,no,yes,no,300234065984580,GPS,TUT,MOSAiC,North
2019-11-04T23:30:02Z,1572910203,2019,23,30,308.9792,308.9792,86.15337,120.21659,-999.00,-1.82,-999.0,no,yes,no,300234065984580,GPS,TUT,MOSAiC,North
2019-11-05T00:29:57Z,1572913797,2019,0,30,309.0208,309.0208,86.14745,119.78568,-999.00,-1.74,-999.0,no,yes,no,300234065984580,GPS,TUT,MOSAiC,North
2019-11-05T01:30:00Z,1572917400,2019,1,30,309.0625,309.0625,86.15351,120.11465,-999.00,-1.79,-999.0,no,yes,no,300234065984580,GPS,TUT,MOSAiC,North
2019-11-05T02:30:02Z,1572921003,2019,2,30,309.1042,309.1042,86.15309,120.06285,-999.00,-1.77,-999.0,no,yes,no,300234065984580,GPS,TUT,MOSAiC,North
2019-11-05T03:29:57Z,1572924597,2019,3,30,309.1458,309.1458,86.15244,120.00965,-999.00,-1.73,-999.0,no,yes,no,300234065984580,GPS,TUT,MOSAiC,North
2019-11-05T04:30:00Z,1572928200,2019,4,30,309.1875,309.1875,86.15244,120.00963,-999.00,-1.69,-999.0,no,yes,no,300234065984580,GPS,TUT,MOSAiC,North
2019-11-05T05:30:02Z,1572931803,2019,5,30,309.2292,309.2292,86.15064,119.89789,-999.00,-1.67,-999.0,no,yes,no,300234065984580,GPS,TUT,MOSAiC,North
2019-11-05T06:29:57Z,1572935397,2019,6,30,309.2708,309.2708,86.15064,119.89787,-999.00,-1.66,-999.0,no,yes,no,300234065984580,GPS,TUT,MOSAiC,North
2019-11-05T07:30:00Z,1572939000,2019,7,30,309.3125,309.3125,86.14745,119.78568,-999.00,-1.69,-999.0,no,yes,no,300234065984580,GPS,TUT,MOSAiC,North
2019-11-05T08:30:02Z,1572942603,2019,8,30,309.3542,309.3542,86.14476,119.69928,-999.00,-1.77,-999.0,no,yes,no,300234065984580,GPS,TUT,MOSAiC,North
2019-11-05T09:29:57Z,1572946197,2019,9,30,309.3958,309.3958,86.05476,119.69928,-999.00,-1.79,-999.0,no,yes,no,300234065984580,GPS,TUT,MOSAiC,North
2019-11-05T10:30:00Z,1572949800,2019,10,30,309.4375,309.4375,86.14305,119.64045,-999.00,-1.82,-999.0,no,yes,no,300234065984580,GPS,TUT,MOSAiC,North
2019-11-05T11:30:02Z,1572953403,2019,11,30,309.4792,309.4792,86.14145,119.57943,-999.00,-1.84,-999.0,no,yes,no,300234065984580,GPS,TUT,MOSAiC,North
2019-11-05T12:29:57Z,1572956997,2019,12,30,309.5208,309.5208,86.14079,119.54991,-999.00,-1.86,-999.0,no,yes,no,300234065984580,GPS,TUT,MOSAiC,North
2019-11-05T13:30:00Z,1572960600,2019,13,30,309.5625,309.5625,86.13962,119.49398,-999.00,-1.88,-999.0,no,yes,no,300234065984580,GPS,TUT,MOSAiC,North
2019-11-05T14:30:02Z,1572964203,2019,14,30,309.6042,309.6042,86.13735,119.39694,-999.00,-1.93,-999.0,no,yes,no,300234065984580,GPS,TUT,MOSAiC,North
2019-11-05T15:29:57Z,1572967797,2019,15,30,309.6458,309.6458,86.13598,119.35122,-999.00,-1.9,-999.0,no,yes,no,300234065984580,GPS,TUT,MOSAiC,North